Home > Time Zones > World Clock > Weather > Sweden > Lund > Past weeks

Flag for Sweden Weather past 2 weeks in Lund, Sweden

Now
55 °F

Partly sunny.


Feels Like: 51 °F
Forecast: 50 / 56 °F
Wind: 20 mph from West

Location: Malmo / Sturup

Current Time: Oct 20, 2014 at 10:59:55 AM

Latest Report: Oct 20, 2014 at 10:20 AM


Visibility: N/A

Pressure: 29.65 "Hg

Humidity: 88%

Dew point: 52 °F

Location of LundLocation

Historic Weather in Lund — Graph

°F

Lund temperature yesterday

Maximum temperature yesterday: 59 °F (at 5:50 AM)
Minimum temperature yesterday: 57 °F (at 12:20 AM)
Average temperature yesterday: 58 °F

Past Weeks' High & Low Weather Summary

 TemperatureHumidityPressure
High63 °F (Oct 9, 1:20 PM)100% (Oct 7, 5:20 PM)30.21 "Hg (Oct 7, 5:20 PM)
Low41 °F (Oct 13, 12:50 AM)55% (Oct 5, 2:50 PM)29.59 "Hg (Oct 7, 5:50 PM)
Average54 °F90%29.86 "Hg
* Reported Oct 5 9:20 AM — Oct 20 9:50 AM, Lund, Weather by CustomWeather, © 2014

Note: Actual official high and low records may vary slightly from our data, if they occured in-between our weather recording intervals... More about our weather records

Advertising

Lund weather history for previous 24 hours

 ConditionsComfort  
Time TempWeatherWind HumidityBarometerVisibility
9:50 AM
Oct 20
55 °FMostly cloudy.20 mph88%29.62 "HgN/A
9:20 AM55 °FBroken clouds.16 mph88%29.62 "HgN/A
8:50 AM55 °FScattered clouds.15 mph88%29.62 "HgN/A
8:20 AM55 °FOvercast.18 mph94%29.62 "HgN/A
7:50 AM55 °FPartly cloudy.15 mph94%29.59 "HgN/A
7:20 AM55 °FPassing clouds.16 mph94%29.59 "HgN/A
6:50 AM55 °FOvercast.14 mph94%29.62 "HgN/A
5:20 AM57 °FPartly cloudy.20 mph88%29.62 "HgN/A
4:50 AM57 °FOvercast.20 mph88%29.62 "HgN/A
4:20 AM57 °FPartly cloudy.15 mph88%29.62 "HgN/A
3:50 AM57 °FPassing clouds.16 mph88%29.62 "HgN/A
3:20 AM57 °FPartly cloudy.18 mph88%29.65 "HgN/A
2:50 AM57 °FOvercast.15 mph94%29.65 "HgN/A
2:20 AM57 °FPassing clouds.17 mph88%29.65 "HgN/A
1:50 AM55 °FPassing clouds.16 mph94%29.65 "HgN/A
1:20 AM57 °FPassing clouds.16 mph88%29.65 "HgN/A
12:50 AM55 °FPartly cloudy.15 mph94%29.68 "HgN/A
12:20 AM55 °FPassing clouds.14 mph94%29.68 "HgN/A
11:50 PM
Oct 19
57 °FPassing clouds.13 mph88%29.68 "HgN/A
11:20 PM57 °FPassing clouds.10 mph88%29.68 "HgN/A
10:50 PM57 °FPassing clouds.13 mph88%29.68 "HgN/A
10:20 PM59 °FPartly cloudy.12 mph88%29.68 "HgN/A
9:50 PM59 °FPassing clouds.12 mph94%29.68 "HgN/A
9:20 PM59 °FPartly cloudy.14 mph94%29.68 "HgN/A
8:50 PM59 °FPassing clouds.13 mph94%29.68 "HgN/A
8:20 PM59 °FPartly cloudy.10 mph94%29.68 "HgN/A
7:50 PM59 °FPartly cloudy.10 mph94%29.68 "HgN/A
7:20 PM59 °FPassing clouds.12 mph94%29.71 "HgN/A
6:50 PM59 °FPartly sunny.10 mph94%29.71 "HgN/A
6:20 PM59 °FPartly sunny.7 mph94%29.71 "HgN/A
5:50 PM59 °FLight rain. Partly sunny.10 mph94%29.71 "HgN/A
5:20 PM59 °FLight rain. Fog.10 mph100%29.74 "Hg4 mi
4:50 PM59 °FLight rain. Partly sunny.8 mph94%29.74 "Hg6 mi
4:20 PM59 °FBroken clouds.10 mph94%29.74 "HgN/A
3:50 PM59 °FLight rain. Fog.9 mph94%29.74 "Hg4 mi
3:20 PM59 °FRain. Low clouds.14 mph94%29.77 "Hg4 mi
2:50 PM59 °FRain. Mostly cloudy.13 mph100%29.77 "Hg3 mi
2:20 PM59 °FRain. Low clouds.16 mph94%29.77 "Hg4 mi
1:50 PM57 °FLight rain. Fog.13 mph100%29.77 "Hg3 mi
1:20 PM57 °FLight rain. Fog.10 mph100%29.80 "Hg2 mi
12:50 PM57 °FRain. Fog.8 mph100%29.80 "Hg2 mi
12:20 PM57 °FLight rain. Partly sunny.10 mph100%29.83 "Hg2 mi
11:50 AM57 °FHeavy rain. Mostly cloudy.12 mph100%29.83 "Hg1 mi
11:20 AM57 °FRain. Mostly cloudy.12 mph100%29.86 "Hg2 mi
10:50 AM59 °FRain. Broken clouds.12 mph94%29.86 "Hg3 mi
10:20 AM59 °FLight rain. Broken clouds.12 mph94%29.89 "HgN/A
Weather by CustomWeather, © 2014

See weather overviewHow to use our weather pages